Location: Bho
(6.3607°N, 10.5837°W)
Time: 19:03:03
(UTC+00:00)

Daily predictions for brighter satellites

Satellite Brightness Start Highest point End
(mag) Time Altitude Azimuth Time Altitude Azimuth Time Altitude Azimuth
Milstar 3 4.2 18:51:42 10° WNW 19:09:38 67° NNE 19:18:39 10° ESE
Feng Yun 1-1 Rocket 4.5 19:06:54 10° SSE 19:12:29 55° ENE 19:18:10 10° N
Cosmos 2154 Rocket 4.1 19:09:13 10° S 19:15:29 88° E 19:21:42 10° N
Meteor 1-14 Rocket 4.2 19:11:21 10° S 19:17:02 72° E 19:22:35 10° N
GP-B 4.5 19:14:34 10° SE 19:17:35 18° E 19:20:36 10° NE
Cosmos 2219 Rocket 2.5 19:13:53 10° S 19:19:09 44° ESE 19:24:25 10° NNE
SEDSat Delta rocket 3.7 19:15:52 10° NW 19:20:51 44° NNE 19:25:13 10° ESE
ARIANE DEB (SYLDA) 3.8 19:22:25 10° SW 19:25:20 21° S 19:28:27 10° ESE
ARGOS 4.1 19:22:47 10° SE 19:27:10 26° ENE 19:31:33 10° NNE
ARIANE 5 R/B 2.8 19:06:11 10° W 19:28:21 88° S 19:31:49 13° E
SME Rocket 4.2 19:26:07 10° NE 19:29:42 23° E 19:32:47 10° SSE
Ariane H10 4.1 19:16:11 10° W 19:30:34 80° N 19:33:51 14° E
Cosmos 1536 4.5 19:29:54 10° SE 19:31:59 14° E 19:32:19 14° E
Nadezhda 3 Rocket 4.4 19:26:41 10° NNE 19:32:31 39° E 19:38:21 10° SSE
USA 238 DEB 4.0 19:27:13 10° S 19:33:10 40° ESE 19:39:08 10° NE
USA 238 4.0 19:27:19 10° S 19:33:16 39° ESE 19:39:14 10° NE
CZ-4 R/B 1.4 19:29:57 10° SSE 19:33:40 49° ENE 19:37:22 10° N
APEX 4.4 19:33:40 10° NE 19:34:58 15° ENE 19:34:58 15° ENE
Cosmos 1437 4.0 19:34:31 10° NNW 19:37:13 39° W 19:39:57 10° SSW
H-2A R/B 2.2 19:32:18 10° SSE 19:37:31 56° ENE 19:42:49 10° N
Cosmos 2227 4.4 19:32:10 10° N 19:37:41 51° ENE 19:43:10 10° SSE
Cosmos 2322 3.9 19:33:20 10° SSW 19:39:02 78° WNW 19:44:45 10° NNE
IRS-1C Rocket 4.0 19:36:33 10° SSE 19:41:48 77° ENE 19:47:03 10° N
TSX-5 3.3 19:39:37 10° NNW 19:42:44 78° WSW 19:45:54 10° SSE
Cosmos 1869 Rocket 4.0 19:41:42 10° SSE 19:45:42 38° E 19:49:42 10° NNE
Cosmos 1515 3.7 19:42:09 10° N 19:45:51 52° E 19:49:33 10° SSE
Okean 1 3.4 19:42:52 10° N 19:46:49 53° E 19:50:45 10° SSE
SL-8 Rocket 4.1 19:41:08 10° S 19:47:16 56° E 19:53:20 10° NNE
Cosmos 968 Rocket 4.0 19:42:38 10° N 19:47:27 37° ENE 19:52:15 10° SE
Cosmos 2263 Rocket 2.1 19:42:43 10° N 19:48:15 73° ENE 19:53:49 10° SSE
Meteor 1-18 Rocket 4.4 19:44:31 10° N 19:50:13 51° E 19:55:48 10° SSE
GPS 2-15 Rocket1 3.7 19:47:29 10° NW 19:52:12 45° NNE 19:54:36 26° ENE
Okean-O 2.5 19:50:20 10° SSE 19:54:45 77° ENE 19:59:10 10° N
Ariane 42L Rocket 3.3 19:45:29 10° W 19:56:11 74° S 19:58:31 29° E
Cosmos 1666 2.7 19:54:21 10° S 19:58:04 78° W 20:01:46 10° N
HJ-1C 3.3 19:55:40 10° SSE 19:58:58 60° E 20:02:13 10° N
CSL-04 Rocket 4.0 19:54:25 10° SSE 19:59:40 44° ENE 20:04:54 10° N
CZ-2C R/B 3.8 19:55:19 10° N 20:00:20 44° WNW 20:05:17 10° SSW
CSL-04 Debris 4.3 19:55:58 10° SSE 20:01:09 50° ENE 20:06:22 10° N
Cosmos 2366 rocket 4.0 19:56:09 10° S 20:02:17 60° E 20:08:26 10° NNE
NOSS 3-2 (A) 3.2 20:00:30 10° SSW 20:05:46 73° WNW 20:11:11 10° NNE
DMSP B5D2-2 4.4 20:01:00 10° N 20:06:09 66° WNW 20:11:18 10° SSW
MAQSAT/ARIANE V 4.1 20:06:23 10° WSW 20:10:03 38° SSE 20:17:41 20° ESE
Lacrosse 5 rocket 4.1 20:08:42 10° WNW 20:11:24 17° WSW 20:14:01 10° SSW
Geosat FO 4.4 20:18:02 82° NNE 20:18:10 89° ESE 20:21:37 10° SSW
Cosmos 2237 Rocket 2.5 20:13:16 10° S 20:18:23 41° ESE 20:18:23 41° ESE
ARIANE 5 DEB (SYLDA) 4.1 20:21:25 10° SW 20:23:03 14° SSW 20:23:03 14° SSW
SL-08 RB Rocket 3.5 20:19:22 10° SSE 20:23:50 85° E 20:28:18 10° N
ARIANE 5 R/B 3.4 20:19:10 10° WSW 20:25:27 32° SSW 20:25:40 32° S
Cosmos 2333 Rocket 4.2 20:21:23 10° SW 20:26:03 27° WNW 20:30:46 10° NNW
Cosmos 2218 Rocket 4.3 20:23:01 10° S 20:29:19 70° W 20:35:41 10° N
X-37B 3.4 20:27:36 10° SSW 20:28:01 13° SSW 20:28:01 13° SSW
Lacrosse 5 3.9 20:27:28 10° S 20:28:27 14° SSE 20:28:27 14° SSE
CENTAUR R/B 2.1 20:26:40 10° SSW 20:31:45 75° WNW 20:34:00 36° NNE
ATLAS 2A CENTAUR R/B 4.4 19:44:56 10° WNW 20:32:51 48° N 20:38:02 34° NE
NOSS 0 Rocket 3.9 20:28:06 10° SSW 20:34:16 83° WNW 20:37:57 26° NNE
ARIANE 44L R/B 4.1 20:32:24 10° WSW 20:35:14 21° SSW 20:35:14 21° SSW
Atlas Centaur 2 4.4 20:35:47 10° WSW 20:39:53 18° SW 20:43:28 10° S
Yuri Rocket 4.5 20:34:30 10° NW 20:41:48 44° NNE 20:41:48 44° NNE
Ariane H10-3 4.1 20:40:29 10° WSW 20:40:51 14° WSW 20:40:51 14° WSW
NOSS 3-2 (C) 3.4 20:38:52 10° SSW 20:44:06 63° WNW 20:45:16 49° NNW
Helios 1A Rocket 4.5 20:40:46 10° SSW 20:44:30 34° WSW 20:48:13 10° NW
Meteor 2-4 Rocket 4.0 20:41:58 10° NNW 20:47:50 69° W 20:53:42 10° S
ARIANE 5 R/B 3.3 20:46:37 10° W 20:50:18 64° S 20:51:33 55° SE
Cosmos 1980 4.2 20:56:26 10° SSW 21:01:33 57° W 21:01:33 57° W
Ariane H10+ 4.2 21:16:07 10° W 22:04:16 - E 21:20:04 76° WNW
Ariane H10+ 4.2 21:16:07 10° W 22:04:15 - E 21:20:05 76° WNW
Ariane H10+ 4.2 21:16:07 10° W 22:04:16 - E 21:20:05 76° WNW
Ariane H10+ 4.2 21:16:07 10° W 21:20:04 76° W 21:20:04 76° W
Milstar 3 4.4 21:45:20 10° W 21:53:34 32° SW 21:53:34 32° SW
